Location: ?????????
(48.4505°N, 34.2261°E)
Time: 18:47:01
(UTC+00:00)

Daily predictions for brighter satellites

Satellite Brightness Start Highest point End
(mag) Time Altitude Azimuth Time Altitude Azimuth Time Altitude Azimuth
H-2A R/B 4.4 18:14:06 10° SW 18:18:06 23° W 18:22:13 10° NW
Cosmos 1943 Rocket 2.4 18:15:14 10° S 18:20:34 50° ESE 18:26:00 10° NE
NOSS 2-2 (C) 3.2 18:17:13 10° SW 18:20:46 88° SE 18:24:50 10° NE
Cosmos 1975 Rocket 4.2 18:17:50 10° SE 18:21:32 27° E 18:25:14 10° NNE
SL-27 R/B 3.1 18:19:20 10° N 18:22:46 43° ENE 18:26:07 10° SE
STARLINK-1198 4.5 18:19:30 10° WNW 18:23:33 49° N 18:27:35 10° E
NOSS 3-2 (A) 4.2 18:19:05 10° NW 18:26:34 83° SW 18:35:00 10° SE
ATLAS 2AS CENTAUR R/B 3.6 18:20:05 10° S 18:27:06 36° ESE 18:34:09 10° NE
STARLINK-1199 4.4 18:24:29 10° WNW 18:28:32 50° NNE 18:32:35 10° E
STARLINK-1212 2.9 18:26:33 10° WNW 18:29:42 81° NNE 18:32:50 10° ESE
STARLINK-1105 2.9 18:27:10 10° WNW 18:30:19 82° NNE 18:33:28 10° ESE
STARLINK-1247 2.9 18:28:16 10° WNW 18:31:26 83° NNE 18:34:35 10° ESE
STARLINK-1227 2.9 18:28:52 10° WNW 18:32:01 84° NNE 18:35:10 10° ESE
STARLINK-1226 2.9 18:30:00 10° WNW 18:33:10 85° NNE 18:36:18 10° ESE
BREEZE M DEB (TANK) 2.8 18:27:05 10° WSW 18:33:21 60° SSE 18:35:52 10° E
STARLINK-1210 4.4 18:29:29 10° WNW 18:33:32 52° NNE 18:37:36 10° E
STARLINK-1215 2.9 18:31:05 10° WNW 18:34:15 86° NNE 18:37:25 10° ESE
STARLINK-1217 2.9 18:33:17 10° WNW 18:36:28 89° NNE 18:39:37 10° ESE
STARLINK-1229 2.9 18:34:22 10° WNW 18:37:33 90° SSE 18:40:43 10° ESE
STARLINK-1219 4.3 18:34:30 10° WNW 18:38:34 53° NNE 18:42:38 10° E
STARLINK-1270 2.9 18:35:28 10° WNW 18:38:40 88° SSW 18:41:49 10° ESE
SL-4 R/B 2.4 18:34:57 10° SW 18:39:36 63° SSE 18:44:24 10° ENE
STARLINK-1189 2.9 18:37:49 10° WNW 18:41:00 86° SSW 18:44:04 11° ESE
USA 238 DEB 4.1 18:34:24 10° NW 18:41:34 71° SW 18:48:58 10° SSE
USA 238 4.1 18:34:30 10° NW 18:41:41 71° SW 18:49:05 10° SSE
STARLINK-1188 2.9 18:39:00 10° WNW 18:42:11 84° SSW 18:45:13 11° ESE
Landsat 7 3.9 18:37:27 10° SSE 18:42:12 76° ENE 18:46:58 10° N
STARLINK-1211 4.3 18:39:29 10° WNW 18:43:33 55° NNE 18:47:38 10° E
ERS-1 Rocket 3.4 18:39:13 10° SE 18:44:04 51° ENE 18:48:57 10° N
STARLINK-1191 2.9 18:41:34 10° WNW 18:44:45 81° SSW 18:47:42 12° ESE
STARLINK-1221 2.9 18:42:49 10° WNW 18:46:00 79° SSW 18:48:52 12° ESE
STARLINK-1222 2.9 18:43:58 10° WNW 18:47:08 78° SSW 18:49:58 12° ESE
Cosmos 1242 Rocket 3.7 18:44:29 11° SSE 18:47:24 27° E 18:50:34 10° NE
Okean 1 Rocket 3.7 18:43:38 10° NNW 18:48:00 55° W 18:52:18 10° S
STARLINK-1214 2.9 18:45:15 10° WNW 18:48:26 76° SSW 18:51:14 13° ESE
STARLINK-1245 4.2 18:44:26 10° WNW 18:48:32 57° NNE 18:52:37 10° E
Cosmos 1455 Rocket 3.5 18:44:22 10° N 18:48:34 46° ENE 18:52:19 12° SSE
Cosmos 2026 Rocket 4.4 18:43:41 10° SSE 18:49:42 49° E 18:55:48 10° NNE
STARLINK-29 3.0 18:48:49 10° SW 18:51:58 53° SSE 18:55:07 10° ENE
Cosmos 968 Rocket 3.7 18:48:18 10° NNW 18:53:25 60° ENE 18:57:56 13° SE
STARLINK-1233 4.1 18:49:26 10° WNW 18:53:32 59° NNE 18:57:38 10° E
Cosmos 2369 Rocket 2.2 18:50:01 10° SSW 18:55:37 68° ESE 19:01:15 10° NNE
IGS 5A 3.6 18:53:23 10° S 18:57:32 77° WSW 19:01:43 10° NNW
STARLINK-1209 3.5 18:54:19 10° WNW 18:57:44 53° SSW 19:00:24 15° SE
STARLINK-1204 4.1 18:54:24 10° WNW 18:58:31 61° NNE 19:02:38 10° E
ATLAS CENTAUR R/B 2.1 18:54:40 10° S 18:58:37 33° ESE 19:02:21 10° NE
Cosmos 1867 3.7 18:53:12 10° NW 18:58:42 71° NE 19:03:31 13° SE
Okean 2 3.4 18:55:35 10° S 18:59:42 73° E 19:03:53 10° NNE
CARTOSAT-1 3.7 18:56:59 13° SSE 19:00:47 63° ENE 19:05:03 10° N
STARLINK-1238 4.0 18:59:23 10° WNW 19:03:31 64° NNE 19:07:38 10° ESE
Nadezhda 4 Rocket 4.4 18:59:47 10° SSW 19:05:52 66° WNW 19:11:58 10° N
Cosmos 1766 3.8 19:02:59 10° NNW 19:06:55 58° W 19:10:50 10° S
STARLINK-1320 4.0 19:05:29 10° SSW 19:08:03 24° SE 19:10:38 10° E
STARLINK-1322 4.0 19:05:49 10° SSW 19:08:24 24° SE 19:10:59 10° E
STARLINK-1201 3.9 19:04:23 10° WNW 19:08:31 67° NNE 19:12:39 10° ESE
STARLINK-1187 3.4 19:05:19 10° WNW 19:08:32 49° SSW 19:10:40 18° SE
STARLINK-1324 3.9 19:06:07 10° SSW 19:08:42 24° SE 19:11:18 10° E
STARLINK-1294 3.9 19:06:26 10° SSW 19:09:01 24° SE 19:11:37 10° E
STARLINK-1261 3.9 19:06:48 10° SSW 19:09:24 24° SE 19:12:01 10° E
STARLINK-1325 3.9 19:07:08 10° SSW 19:09:45 24° SE 19:12:22 10° E
STARLINK-1333 3.9 19:07:30 10° SSW 19:10:07 25° SE 19:12:45 10° E
STARLINK-1334 3.9 19:07:47 10° SSW 19:10:24 25° SE 19:13:02 10° E
STARLINK-1326 3.9 19:08:06 10° SSW 19:10:44 25° SE 19:13:21 10° E
STARLINK-1323 3.9 19:08:28 10° SSW 19:11:06 25° SE 19:13:44 10° E
STARLINK-1349 3.9 19:08:45 10° SSW 19:11:23 25° SE 19:14:02 10° E
STARLINK-1234 3.8 19:08:05 10° WNW 19:11:30 44° SW 19:13:46 18° SSE
STARLINK-1336 3.9 19:09:05 10° SSW 19:11:43 25° SE 19:14:23 10° E
STARLINK-1331 3.9 19:09:28 10° SSW 19:12:06 26° SE 19:14:45 10° E
STARLINK-1344 3.8 19:09:45 10° SSW 19:12:24 26° SE 19:15:04 10° E
STARLINK-1343 3.8 19:10:07 10° SSW 19:12:47 26° SE 19:15:26 10° E
STARLINK-1346 3.8 19:10:24 10° SSW 19:13:04 26° SE 19:15:46 10° E
STARLINK-1328 3.8 19:10:49 10° SSW 19:13:29 26° SE 19:16:10 10° E
STARLINK-1206 3.8 19:09:20 10° WNW 19:13:29 70° NNE 19:17:30 11° ESE
STARLINK-1354 3.8 19:11:06 10° SSW 19:13:47 26° SE 19:16:28 10° E
STARLINK-1347 3.8 19:11:25 10° SSW 19:14:05 26° SE 19:16:47 10° E
STARLINK-1357 3.8 19:11:48 10° SSW 19:14:29 27° SE 19:17:11 10° E
STARLINK-1335 3.8 19:12:05 10° SSW 19:14:46 27° SE 19:17:29 10° E
STARLINK-1327 3.8 19:12:26 10° SSW 19:15:07 27° SE 19:17:49 10° E
STARLINK-1340 3.8 19:12:44 10° SSW 19:15:25 27° SE 19:18:08 10° E
STARLINK-1356 3.8 19:13:06 10° SSW 19:15:48 27° SE 19:18:31 10° E
STARLINK-1338 4.4 19:12:42 10° SSW 19:16:04 27° SE 19:19:25 10° E
STARLINK-1345 3.8 19:13:24 10° SSW 19:16:07 27° SE 19:18:50 10° E
STARLINK-1355 3.7 19:13:45 10° SSW 19:16:28 28° SE 19:19:11 10° E
STARLINK-1228 3.9 19:13:03 10° WNW 19:16:30 42° SW 19:18:41 19° SSE
CENTAUR R/B 3.3 19:08:30 10° NW 19:16:31 75° SW 19:24:00 15° SSE
Resurs 01 Rocket 3.8 19:13:10 10° SW 19:16:38 22° W 19:20:07 10° NW
STARLINK-1321 3.7 19:14:05 10° SSW 19:16:48 28° SE 19:19:32 10° E
STARLINK-1358 3.7 19:14:28 10° SSW 19:17:11 28° SE 19:19:55 10° E
USA 245 4.0 19:15:04 10° SSW 19:17:16 25° W 19:19:17 10° NW
STARLINK-1332 3.7 19:14:45 10° SSW 19:17:28 28° SE 19:20:13 10° E
STARLINK-1348 3.7 19:15:04 10° SSW 19:17:48 28° SE 19:20:33 10° E
STARLINK-1330 3.7 19:15:24 10° SSW 19:18:08 28° SE 19:20:54 10° E
STARLINK-1363 3.7 19:15:43 10° SSW 19:18:28 29° SE 19:21:13 10° E
STARLINK-1205 3.8 19:14:19 10° WNW 19:18:28 74° NNE 19:22:17 12° ESE
STARLINK-1337 3.7 19:16:05 10° SSW 19:18:50 29° SE 19:21:36 10° E
STARLINK-1342 3.7 19:16:24 10° SSW 19:19:10 29° SE 19:21:56 10° E
STARLINK-1364 3.7 19:16:44 10° SSW 19:19:30 29° SE 19:22:16 10° E
STARLINK-1376 3.7 19:17:05 10° SSW 19:19:50 29° SE 19:22:36 10° E
STARLINK-1360 3.7 19:17:24 10° SSW 19:20:10 29° SE 19:22:57 10° E
STARLINK-1361 3.6 19:17:45 10° SSW 19:20:31 30° SE 19:23:18 10° E
STARLINK-1367 3.6 19:18:01 10° SSW 19:20:47 30° SE 19:23:36 10° E
STARLINK-1366 3.6 19:18:23 10° SSW 19:21:10 30° SE 19:23:57 10° ENE
USA 215 4.5 19:15:15 10° ENE 19:21:21 43° N 19:27:26 10° WNW
Cosmos 1536 Rocket 4.4 19:18:52 18° SE 19:21:28 33° E 19:25:25 10° NNE
Spot 2 Rocket 4.5 19:17:59 10° S 19:22:46 42° W 19:27:35 10° NNW
SPOT 5 3.1 19:18:40 15° SSE 19:23:11 88° WSW 19:28:36 10° NNW
STARLINK-1218 3.7 19:19:18 10° WNW 19:23:28 77° NNE 19:27:04 13° ESE
STARLINK-1371 4.2 19:20:37 10° SSW 19:24:04 30° SE 19:27:33 10° ENE
ATLAS 3B R/B 2.9 19:18:08 10° NW 19:24:56 72° NE 19:30:53 15° SE
Cosmos 1544 Rocket 3.5 19:21:45 10° N 19:26:07 80° E 19:29:17 18° SSE
STARLINK-52 2.8 19:24:05 10° WSW 19:27:18 87° SSE 19:30:31 10° ENE
Terra 1.8 19:23:50 17° SSE 19:27:26 76° ENE 19:32:13 10° N
STARLINK-1341 4.2 19:24:45 10° SSW 19:28:17 32° SE 19:31:49 10° ENE
STARLINK-1254 3.7 19:24:17 10° WNW 19:28:27 81° NNE 19:31:51 15° ESE
EXPRESS MD2 3.9 19:29:16 10° W 19:32:45 76° N 19:39:51 10° E
STARLINK-1374 4.1 19:29:15 10° SSW 19:32:53 35° SE 19:36:31 10° ENE
STARLINK-1231 3.6 19:29:16 10° WNW 19:33:26 85° NNE 19:36:38 16° ESE
STARLINK-1339 4.0 19:33:28 10° SSW 19:37:09 37° SE 19:40:50 10° ENE
Cosmos 1503 Rocket 4.1 19:32:07 10° NNW 19:37:29 84° WSW 19:41:16 20° SSE
Cosmos 1726 3.0 19:34:51 10° N 19:38:22 38° ENE 19:40:12 22° SE
STARLINK-1232 3.6 19:34:16 10° WNW 19:38:26 90° N 19:41:27 18° ESE
APEX 4.4 19:34:30 10° SW 19:40:42 72° WNW 19:45:42 10° NNE
STARLINK-1377 3.9 19:37:42 10° SSW 19:41:26 40° SE 19:45:10 10° ENE
Meteor 2-10 4.1 19:36:27 10° N 19:41:28 61° ENE 19:44:43 22° SSE
STARLINK-1208 3.5 19:39:14 10° WNW 19:43:24 86° SSW 19:46:12 20° ESE
Cosmos 1674 4.4 19:43:49 17° ESE 19:44:55 19° E 19:47:40 10° NE
Cosmos 1470 2.9 19:41:30 10° NNW 19:45:21 69° W 19:47:46 22° S
STARLINK-1225 4.5 19:41:28 10° WNW 19:45:31 50° NNE 19:49:34 10° E
STARLINK-1353 3.8 19:41:55 10° SW 19:45:42 42° SE 19:49:30 10° ENE
SeaSat 1 4.1 19:44:05 10° ENE 19:47:06 16° ESE 19:48:03 15° ESE
COSMOS 2455 2.9 19:41:33 10° SSW 19:47:28 63° ESE 19:53:26 10° NE
STARLINK-1271 3.5 19:44:13 10° WNW 19:48:23 81° SSW 19:51:00 22° ESE
Cosmos 1174 3.3 19:46:29 16° SSW 19:49:02 72° ESE 19:52:52 10° NE
NOSS 3-4 (A) 3.4 19:43:32 10° SW 19:49:29 86° SE 19:55:54 10° NE
STARLINK-1444 3.7 19:47:32 10° W 19:49:31 34° NNW 19:51:32 10° NE
NOSS 3-4 (C) 3.4 19:43:38 10° SW 19:49:35 85° SE 19:56:00 10° NE
OE (NEXTSAT) 4.3 19:46:25 10° W 19:49:53 58° S 19:52:07 20° ESE
STARLINK-1375 3.7 19:46:12 10° SW 19:50:01 45° SE 19:53:51 10° ENE
STARLINK-1452 3.7 19:48:11 10° W 19:50:09 34° NNW 19:52:09 10° NE
STARLINK-1230 4.4 19:46:26 10° WNW 19:50:29 51° NNE 19:54:33 10° E
STARLINK-1392 3.7 19:49:10 10° W 19:51:04 33° NNW 19:53:01 10° NE
STARLINK-1399 3.7 19:49:11 10° W 19:51:06 33° NNW 19:53:03 10° NE
STARLINK-1393 3.7 19:49:13 10° W 19:51:07 33° NNW 19:53:04 10° NE
STARLINK-1394 3.7 19:49:14 10° W 19:51:09 33° NNW 19:53:06 10° NE
STARLINK-1395 3.7 19:49:18 10° W 19:51:11 32° NNW 19:53:07 10° NE
STARLINK-1397 3.7 19:49:16 10° W 19:51:11 33° NNW 19:53:09 10° NE
STARLINK-1396 3.7 19:49:17 10° W 19:51:12 33° NNW 19:53:09 10° NE
STARLINK-1414 3.7 19:49:18 10° W 19:51:12 32° NNW 19:53:09 10° NE
STARLINK-1408 3.7 19:49:21 10° W 19:51:15 32° NNW 19:53:11 10° NE
STARLINK-1404 3.7 19:49:21 10° W 19:51:16 33° NNW 19:53:13 10° NE
STARLINK-1416 3.7 19:49:22 10° W 19:51:17 32° NNW 19:53:13 10° NE
STARLINK-1415 3.7 19:49:22 10° W 19:51:17 33° NNW 19:53:15 10° NE
STARLINK-1450 3.7 19:49:22 10° W 19:51:17 33° NNW 19:53:15 10° NE
STARLINK-1401 3.7 19:49:25 10° W 19:51:20 33° NNW 19:53:18 10° NE
STARLINK-1406 3.7 19:49:27 10° W 19:51:20 32° NNW 19:53:17 10° NE
STARLINK-1417 3.7 19:49:28 10° W 19:51:24 33° NNW 19:53:21 10° NE
STARLINK-1402 3.7 19:49:29 10° W 19:51:24 33° NNW 19:53:22 10° NE
STARLINK-1419 3.7 19:49:30 10° W 19:51:25 33° NNW 19:53:22 10° NE
STARLINK-1413 3.7 19:49:29 10° W 19:51:25 33° NNW 19:53:23 10° NE
STARLINK-1422 3.8 19:49:35 10° W 19:51:29 33° NNW 19:53:28 10° NE
STARLINK-1453 3.7 19:49:34 10° W 19:51:30 33° NNW 19:53:29 10° NE
STARLINK-1398 3.7 19:49:34 10° W 19:51:32 33° NNW 19:53:30 10° NE
STARLINK-1440 3.7 19:49:36 10° W 19:51:32 33° NNW 19:53:30 10° NE
STARLINK-1436 (VISORSAT) 3.8 19:49:36 10° W 19:51:33 33° NNW 19:53:32 10° NE
STARLINK-1420 3.8 19:49:37 10° W 19:51:33 33° NNW 19:53:31 10° NE
STARLINK-1460 3.8 19:49:40 10° W 19:51:36 33° NNW 19:53:34 10° NE
STARLINK-1410 3.8 19:49:45 10° W 19:51:40 33° NNW 19:53:39 10° NE
STARLINK-1423 3.8 19:49:46 10° W 19:51:41 32° NNW 19:53:38 10° NE
STARLINK-1421 3.8 19:49:46 10° W 19:51:41 32° NNW 19:53:38 10° NE
STARLINK-1400 3.8 19:49:45 10° W 19:51:41 33° NNW 19:53:39 10° NE
STARLINK-1454 3.8 19:49:45 10° W 19:51:41 33° NNW 19:53:39 10° NE
STARLINK-1458 3.8 19:49:48 10° W 19:51:43 32° NNW 19:53:41 10° NE
STARLINK-1445 3.8 19:49:49 10° W 19:51:45 33° NNW 19:53:44 10° NE
STARLINK-1446 3.8 19:49:52 10° W 19:51:47 33° NNW 19:53:45 10° NE
STARLINK-1407 3.8 19:49:52 10° W 19:51:49 33° NNW 19:53:46 10° NE
STARLINK-1405 3.8 19:49:56 10° W 19:51:50 32° NNW 19:53:44 10° NE
STARLINK-1370 3.8 19:49:55 10° W 19:51:51 33° NNW 19:53:48 10° NE
STARLINK-1457 3.8 19:49:56 10° W 19:51:51 32° NNW 19:53:48 10° NE
STARLINK-1456 3.8 19:49:56 10° W 19:51:51 32° NNW 19:53:48 10° NE
STARLINK-1451 3.8 19:49:56 10° W 19:51:51 32° NNW 19:53:48 10° NE
STARLINK-1437 3.8 19:49:56 10° W 19:51:52 33° NNW 19:53:49 10° NE
STARLINK-1455 3.8 19:49:56 10° W 19:51:52 33° NNW 19:53:50 10° NE
STARLINK-1409 3.8 19:49:57 10° W 19:51:52 32° NNW 19:53:49 10° NE
STARLINK-1447 3.8 19:49:57 10° W 19:51:52 33° NNW 19:53:50 10° NE
STARLINK-1439 3.8 19:50:00 10° W 19:51:52 32° NNW 19:53:47 10° NE
STARLINK-1441 3.8 19:49:58 10° W 19:51:54 33° NNW 19:53:52 10° NE
STARLINK-1443 3.8 19:50:01 10° W 19:51:56 33° NNW 19:53:55 10° NE
STARLINK-1351 3.8 19:50:03 10° W 19:51:59 33° NNW 19:53:57 10° NE
STARLINK-1418 3.8 19:50:03 10° W 19:51:59 33° NNW 19:53:57 10° NE
STARLINK-1442 3.8 19:50:03 10° W 19:51:59 33° NNW 19:53:57 10° NE
STARLINK-1434 3.8 19:50:03 10° W 19:52:00 33° NNW 19:53:58 10° NE
STARLINK-1403 3.8 19:50:04 10° W 19:52:00 33° NNW 19:53:58 10° NE
STARLINK-1448 3.8 19:50:05 10° W 19:52:01 33° NNW 19:53:59 10° NE
STARLINK-1433 3.8 19:50:07 10° W 19:52:02 33° NNW 19:54:00 10° NE
STARLINK-1449 3.8 19:50:08 10° W 19:52:03 33° NNW 19:54:02 10° NE
STARLINK-1438 3.8 19:50:12 10° W 19:52:06 32° NNW 19:54:04 10° NE
STARLINK-1411 3.8 19:50:18 10° W 19:52:13 32° NNW 19:54:11 10° NE
STARLINK-1412 3.8 19:50:18 10° W 19:52:13 33° NNW 19:54:12 10° NE
FALCON 9 DEB 3.0 19:49:32 10° WSW 19:52:58 89° SE 19:56:26 10° ENE
STARLINK-1154 3.5 19:49:11 10° WNW 19:53:20 76° SSW 19:55:45 24° SE
STARLINK-1350 3.7 19:50:27 10° SW 19:54:17 48° SE 19:58:09 10° ENE
Cosmos 1340 Rocket 3.0 19:50:28 10° N 19:54:32 61° ENE 19:56:34 27° SSE
STARLINK-1243 4.4 19:51:27 10° WNW 19:55:31 53° NNE 19:59:35 10° E
STARLINK-60 4.3 19:52:31 10° W 19:55:33 42° NNW 19:58:36 10° ENE
Cosmos 1025 Rocket 2.9 19:53:47 21° S 19:56:40 87° E 20:01:01 10° N
STARLINK-1197 3.6 19:54:10 10° WNW 19:58:19 72° SSW 20:00:32 26° SE
STARLINK-1352 3.6 19:54:46 10° SW 19:58:39 52° SE 20:02:33 10° ENE
Cosmos 1354 Rocket 4.3 19:54:37 10° NNW 19:59:52 62° WSW 20:03:14 22° S
Aureole 3 3.6 19:57:34 10° N 20:00:23 34° ENE 20:01:10 28° ESE
STARLINK-1236 4.3 19:56:25 10° WNW 20:00:30 54° NNE 20:04:35 10° E
COSMOS 2487 2.5 19:57:53 10° NNW 20:01:21 70° WSW 20:02:44 33° S
ALOS 2 4.3 19:59:48 14° ESE 20:02:25 23° ENE 20:05:53 10° N
STARLINK-1368 3.5 19:59:07 10° SW 20:03:02 55° SSE 20:06:57 10° ENE
STARLINK-1198 3.6 19:59:10 10° WNW 20:03:17 67° SSW 20:05:19 28° SE
Cosmos 2297 Rocket 3.6 19:59:34 10° NNW 20:04:33 30° NE 20:09:25 10° ESE
Cosmos 1943 Rocket 4.0 19:59:35 10° WSW 20:04:34 32° NW 20:09:37 10° NNE
STARLINK-1369 3.5 20:03:10 10° SW 20:07:03 58° SSE 20:10:59 10° ENE
Cosmos 1992 Rocket 4.4 20:02:57 10° SW 20:08:06 64° WNW 20:13:19 10° NNE
STARLINK-1199 3.6 20:04:08 10° WNW 20:08:15 63° SSW 20:10:06 30° SE
Cosmos 2219 4.3 20:03:09 10° NNW 20:08:24 37° NE 20:12:46 14° ESE
RESURS DK-1 2.7 20:06:49 29° S 20:08:29 47° ESE 20:12:28 10° NE
MTI 4.2 20:06:16 10° N 20:09:23 58° WNW 20:11:01 24° SW
Cosmos 1953 2.2 20:05:49 10° N 20:09:48 84° W 20:11:39 31° S
STARLINK-1269 4.2 20:06:23 10° WNW 20:10:30 58° NNE 20:14:34 10° E
Cosmos 1271 Rocket 3.6 20:07:49 14° SSW 20:10:57 47° WNW 20:14:48 10° N
STARLINK-1372 3.4 20:07:32 10° SW 20:11:28 62° SSE 20:15:24 10° ENE
Cosmos 1626 4.2 20:11:46 14° E 20:12:28 15° E 20:14:37 10° NE
ERBS 4.4 20:09:47 10° NW 20:12:39 26° NNE 20:15:31 10° ENE
STARLINK-1210 3.7 20:09:08 10° WNW 20:13:13 58° SSW 20:14:53 32° SSE
Spot 4 4.2 20:10:56 25° SE 20:13:36 57° ENE 20:18:20 10° N
Lacrosse 4 Rocket 3.9 20:11:04 10° N 20:14:03 18° NE 20:16:57 10° E
Cosmos 2228 3.6 20:11:18 10° N 20:15:23 44° ENE 20:17:13 27° SE
STARLINK-1200 4.1 20:11:22 10° WNW 20:15:29 61° NNE 20:19:21 11° E
STARLINK-1378 3.4 20:11:53 10° SW 20:15:50 67° SSE 20:19:48 10° ENE
Cosmos 921 Rocket 4.1 20:16:00 24° ESE 20:17:04 27° E 20:20:46 10° NE
ATLAS 2AS CENTAUR R/B 3.3 20:09:44 10° SW 20:17:43 72° NW 20:25:39 10° NE
STARLINK-1219 3.8 20:14:09 10° WNW 20:18:12 54° SW 20:19:41 34° SSE
SL-4 R/B 2.9 20:14:40 10° W 20:19:27 64° N 20:24:17 10° ENE
STARLINK-1379 3.4 20:16:19 10° SW 20:20:17 71° SSE 20:24:16 10° ENE
STARLINK-1192 4.0 20:16:22 10° WNW 20:20:30 63° NNE 20:24:09 13° E
Timation 2 Rocket 3.9 20:14:44 10° NNW 20:21:05 81° ENE 20:24:49 25° SE
Meteor 2-15 4.4 20:15:38 10° N 20:21:48 80° E 20:25:25 26° SSE
Cosmos 1707 3.6 20:20:12 18° SW 20:22:48 47° WNW 20:26:34 10° N
STARLINK-1211 3.9 20:19:08 10° WNW 20:23:10 50° SW 20:24:28 36° SSE
Cosmos 1656 Rocket 4.4 20:18:04 10° SW 20:23:34 54° WNW 20:29:01 10° NNE
STARLINK-1329 3.4 20:20:00 10° SW 20:23:58 74° SSE 20:27:58 10° ENE
BREEZE-M DEB (TANK) 4.1 20:12:12 10° WNW 20:24:05 50° SW 20:26:06 29° SSE
STARLINK-1244 3.9 20:21:20 10° WNW 20:25:28 66° NNE 20:28:54 14° ESE
STARLINK-1245 4.0 20:24:07 10° WNW 20:28:06 47° SW 20:29:14 36° S
STARLINK-29 4.2 20:25:05 10° W 20:28:11 43° NNW 20:31:17 10° ENE
STARLINK-1362 3.4 20:24:27 10° WSW 20:28:27 79° SSE 20:32:28 10° ENE
EO 1 Del DPAF 3.2 20:24:54 10° NNE 20:28:40 66° ESE 20:29:55 39° S
STARLINK-1138 3.9 20:26:18 10° WNW 20:30:27 69° NNE 20:33:40 16° ESE
Meteor 1-16 Rocket 4.2 20:25:21 10° NNW 20:30:48 73° W 20:33:42 27° S
STARLINK-1373 3.4 20:28:56 10° WSW 20:32:56 83° SSE 20:36:58 10° ENE
STARLINK-1233 4.1 20:29:07 10° WNW 20:33:04 44° SW 20:34:01 37° S
S3M 4.4 20:27:18 10° NNW 20:33:21 57° W 20:37:28 21° SSW
SL-4 R/B 2.5 20:33:59 21° NE 20:33:59 21° NE 20:35:26 10° NNE
Cosmos 1726 Rocket 3.8 20:31:06 10° N 20:35:23 58° ENE 20:37:07 33° SE
STARLINK-1143 3.8 20:31:18 10° WNW 20:35:27 72° NNE 20:38:28 18° ESE
Cosmos 2098 Rocket 4.4 20:31:46 24° S 20:36:30 73° E 20:43:50 10° NNE
STARLINK-1390 3.4 20:33:26 10° WSW 20:37:27 87° SSE 20:41:28 10° ENE
ATLAS CENTAUR R/B 2.9 20:33:28 10° WSW 20:37:29 37° NW 20:41:17 10° NNE
STARLINK-1204 4.1 20:34:07 10° WNW 20:38:01 40° SW 20:38:47 36° S
Cosmos 2315 Rocket 4.0 20:31:55 10° N 20:38:10 83° E 20:41:41 28° SSE
Cosmos 1892 Rocket 4.2 20:37:21 31° SE 20:38:46 41° E 20:42:53 10° NNE
Cosmos 2369 Rocket 4.3 20:35:26 10° WSW 20:40:09 26° NW 20:44:53 10° NNE
STARLINK-1241 3.7 20:36:18 10° WNW 20:40:27 76° NNE 20:43:15 20° ESE
Cosmos 2227 Rocket 3.0 20:37:06 10° NNW 20:42:36 45° NE 20:46:35 18° ESE
SJ 16-02 2.9 20:39:03 10° N 20:42:55 28° ENE 20:45:35 16° ESE
STARLINK-1238 4.2 20:39:08 10° WNW 20:42:59 38° SW 20:43:35 35° SSW
STARLINK-1365 3.5 20:39:04 10° WSW 20:43:07 87° NNW 20:47:11 10° ENE
STARLINK-1320 3.2 20:40:33 10° WSW 20:43:40 65° NNW 20:46:46 10° ENE
STARLINK-1322 3.2 20:40:54 10° WSW 20:44:00 65° NNW 20:47:07 10° ENE
Meteor 2-15 Rocket 4.4 20:37:58 10° N 20:44:09 88° W 20:47:31 29° S
STARLINK-1324 3.2 20:41:12 10° WSW 20:44:18 65° NNW 20:47:25 10° ENE
STARLINK-1294 3.2 20:41:32 10° WSW 20:44:38 65° NNW 20:47:45 10° ENE
STARLINK-1261 3.2 20:41:55 10° WSW 20:45:01 64° NNW 20:48:08 10° ENE
STARLINK-1325 3.2 20:42:16 10° WSW 20:45:22 64° NNW 20:48:29 10° ENE
STARLINK-1239 3.6 20:41:17 10° WNW 20:45:26 80° NNE 20:48:03 22° ESE
STARLINK-1333 3.3 20:42:38 10° WSW 20:45:44 64° NNW 20:48:51 10° ENE
STARLINK-1334 3.3 20:42:56 10° WSW 20:46:01 63° NNW 20:49:08 10° ENE
STARLINK-1326 3.3 20:43:15 10° WSW 20:46:21 63° NNW 20:49:27 10° ENE
STARLINK-1323 3.3 20:43:37 10° WSW 20:46:43 63° NNW 20:49:50 10° ENE
STARLINK-1349 3.3 20:43:55 10° WSW 20:47:00 63° NNW 20:50:07 10° ENE
STARLINK-1336 3.3 20:44:15 10° WSW 20:47:21 62° NNW 20:50:28 10° ENE
STARLINK-1331 3.3 20:44:39 10° WSW 20:47:43 62° NNW 20:50:50 10° ENE
STARLINK-1201 4.3 20:44:09 10° WNW 20:47:57 35° SW 20:48:22 34° SSW
STARLINK-1344 3.3 20:44:57 10° WSW 20:48:02 62° NNW 20:51:08 10° ENE
STARLINK-1343 3.3 20:45:19 10° WSW 20:48:24 62° NNW 20:51:31 10° ENE
STARLINK-1346 3.3 20:45:36 10° WSW 20:48:43 62° NNW 20:51:51 10° ENE
STARLINK-1328 3.3 20:46:02 10° WSW 20:49:08 61° NNW 20:52:14 10° ENE
STARLINK-1354 3.3 20:46:20 10° WSW 20:49:25 61° NNW 20:52:32 10° ENE
STARLINK-1347 3.4 20:46:38 10° WSW 20:49:44 61° NNW 20:52:50 10° ENE
STARLINK-1357 3.4 20:47:02 10° WSW 20:50:08 60° NNW 20:53:15 10° ENE
STARLINK-1240 3.6 20:46:13 10° WNW 20:50:23 84° NNE 20:52:48 24° ESE
STARLINK-1335 3.4 20:47:20 10° WSW 20:50:26 60° NNW 20:53:32 10° ENE
STARLINK-1327 3.4 20:47:41 10° WSW 20:50:47 60° NNW 20:53:52 10° ENE
STARLINK-1340 3.4 20:48:00 10° WSW 20:51:05 60° NNW 20:54:11 10° ENE
Cosmos 1437 4.1 20:51:29 25° E 20:51:29 25° E 20:53:51 10° NE
STARLINK-1356 3.4 20:48:22 10° WSW 20:51:28 59° NNW 20:54:34 10° ENE
STARLINK-1345 3.4 20:48:41 10° WSW 20:51:46 59° NNW 20:54:52 10° ENE
STARLINK-1355 3.4 20:49:02 10° WSW 20:52:07 59° NNW 20:55:13 10° ENE
STARLINK-1321 3.4 20:49:23 10° W 20:52:28 59° NNW 20:55:34 10° ENE
STARLINK-1358 3.4 20:49:46 10° W 20:52:51 58° NNW 20:55:57 10° ENE
STARLINK-1206 4.4 20:49:09 10° WNW 20:52:52 32° SW 20:53:07 32° SSW
STARLINK-1332 3.4 20:50:04 10° W 20:53:09 58° NNW 20:56:14 10° ENE
STARLINK-1348 3.4 20:50:24 10° W 20:53:29 58° NNW 20:56:35 10° ENE
STARLINK-1330 3.5 20:50:44 10° W 20:53:49 58° NNW 20:56:55 10° ENE
STARLINK-1363 3.5 20:51:03 10° W 20:54:09 57° NNW 20:57:14 10° ENE
STARLINK-1337 3.5 20:51:26 10° W 20:54:31 57° NNW 20:57:37 10° ENE
STARLINK-1338 3.6 20:50:47 10° WSW 20:54:44 77° NNW 20:58:44 10° ENE
STARLINK-1342 3.5 20:51:46 10° W 20:54:51 57° NNW 20:57:56 10° ENE
STARLINK-1364 3.5 20:52:06 10° W 20:55:11 57° NNW 20:58:16 10° ENE
STARLINK-1216 3.5 20:51:13 10° WNW 20:55:23 88° NNE 20:57:35 27° ESE
STARLINK-1376 3.5 20:52:26 10° W 20:55:32 56° NNW 20:58:37 10° ENE
STARLINK-1360 3.5 20:52:47 10° W 20:55:52 56° NNW 20:58:57 10° ENE
STARLINK-1361 3.5 20:53:08 10° W 20:56:13 56° NNW 20:59:18 10° ENE
STARLINK-1367 3.5 20:53:24 10° W 20:56:29 56° NNW 20:59:36 10° ENE
STARLINK-1366 3.5 20:53:47 10° W 20:56:51 56° NNW 20:59:57 10° ENE
Cosmos 1777 Rocket 4.4 20:52:14 10° NNW 20:57:20 53° WSW 20:59:37 31° SSW
Cosmos 1356 Rocket 4.4 20:55:57 10° N 20:59:55 38° ENE 21:01:38 26° ESE
STARLINK-1237 3.5 20:56:12 10° WNW 21:00:21 87° SSW 21:02:22 30° ESE
Cosmos 1908 3.6 20:56:39 10° NNW 21:00:22 52° W 21:01:28 37° SW
Cosmos 2084 4.1 20:56:36 10° SW 21:00:59 59° NW 21:05:26 10° NE
SL-14 R/B 3.6 21:00:57 41° SE 21:01:46 49° E 21:05:30 10° NNE
STARLINK-1371 3.7 20:58:42 10° WSW 21:02:37 71° NNW 21:06:33 10° ENE
USA 215 3.7 20:57:20 10° ESE 21:03:49 64° NNE 21:10:17 10° NW
STARLINK-1202 3.5 21:01:11 10° WNW 21:05:21 83° SSW 21:07:10 33° ESE
Thor Agena Rocket 4.0 21:00:28 10° N 21:05:39 58° WNW 21:09:05 21° SW
ATLAS CENTAUR R/B 1.6 21:03:36 10° NW 21:05:40 49° NE 21:06:48 29° E
Terra 4.1 21:03:07 10° WSW 21:05:45 15° W 21:08:24 10° NW
Meteor 2-5 Rocket 3.7 21:03:44 31° S 21:06:33 86° ESE 21:12:16 10° NNE
STARLINK-1341 3.8 21:02:57 10° WSW 21:06:52 68° NNW 21:10:48 10° ENE
KORONAS-FOTON 4.4 21:07:03 32° SW 21:08:29 52° WNW 21:12:18 10° N
STARLINK-1203 3.4 21:05:23 10° WNW 21:09:29 79° SSW 21:11:02 37° SE
Cosmos 2292 Rocket 4.4 21:08:26 22° WSW 21:09:33 28° WNW 21:12:12 10° NNW
BREEZE-M DEB 4.1 21:05:54 10° W 21:09:39 82° N 21:23:54 10° E
STARLINK-1374 3.9 21:07:47 10° WSW 21:11:45 65° NNW 21:15:43 10° ENE
Cosmos 1726 4.3 21:10:46 10° NW 21:13:17 17° W 21:14:42 14° WSW
Cosmos 1300 2.7 21:09:30 10° N 21:13:19 71° E 21:14:16 47° SSE
ATLAS 3B R/B 3.8 21:09:23 10° NW 21:15:10 30° WSW 21:18:06 22° SSW
STARLINK-1246 3.5 21:11:09 10° WNW 21:15:18 73° SSW 21:16:43 39° SE
STARLINK-1339 4.0 21:12:06 10° W 21:16:03 62° NNW 21:20:01 10° ENE
Cosmos 1674 3.9 21:18:37 24° WSW 21:20:12 35° WNW 21:23:44 10° N
STARLINK-1224 3.5 21:16:07 10° WNW 21:20:15 69° SSW 21:21:29 42° SE
STARLINK-1377 4.0 21:16:25 10° W 21:20:23 60° NNW 21:24:21 10° ENE
Cosmos 1626 Rocket 4.3 21:20:27 32° SE 21:21:42 41° E 21:25:49 10° NNE
Meteor 2-21 4.4 21:20:42 30° S 21:24:00 87° W 21:30:16 10° N
STARLINK-1353 4.1 21:20:46 10° W 21:24:42 58° NNW 21:28:39 10° ENE
SeaSat 1 2.4 21:20:13 10° NNE 21:25:12 85° WNW 21:27:48 29° SW
STARLINK-1225 3.5 21:21:07 10° WNW 21:25:14 64° SSW 21:26:17 45° SSE
BREEZE-M DEB (TANK) 2.5 21:19:48 10° W 21:27:05 79° N 21:29:43 10° E
STARLINK-1375 4.2 21:25:07 10° W 21:29:03 56° NNW 21:33:00 10° ENE
BREEZE-M DEB (TANK) 1.6 21:24:51 10° WSW 21:29:48 68° SSE 21:32:16 10° ENE
Cosmos 1980 Rocket 3.8 21:28:20 17° SE 21:30:10 20° E 21:34:11 10° NE
STARLINK-1230 3.6 21:26:05 10° WNW 21:30:11 60° SSW 21:31:03 47° SSE
Cosmos 2058 Rocket 3.3 21:26:44 10° NNW 21:31:09 60° W 21:32:37 38° SSW
Cosmos 1244 Rocket 4.5 21:27:54 30° SSW 21:31:12 81° W 21:37:24 10° N
BREEZE-M DEB (TANK) 3.3 21:28:11 10° W 21:31:32 48° SSW 21:32:59 34° SSE
STARLINK-1350 4.2 21:29:27 10° W 21:33:22 54° NNW 21:37:19 10° ENE
COSMOS 2455 4.4 21:28:25 10° WSW 21:33:49 33° NW 21:39:14 10° NNE
Cosmos 1745 Rocket 4.2 21:32:08 30° SSE 21:35:07 59° E 21:41:08 10° NNE
STARLINK-1243 3.7 21:31:07 10° WNW 21:35:10 56° SW 21:35:51 49° S
Cosmos 468 Rocket 4.3 21:34:06 35° SSE 21:35:52 50° ESE 21:40:51 10° NNE
Helios 1B rocket 3.6 21:33:04 10° NE 21:36:44 30° E 21:37:45 26° ESE
STARLINK-1352 4.3 21:33:52 10° W 21:37:47 53° NNW 21:41:43 10° ENE
ALOS 2 3.2 21:37:12 34° SW 21:38:30 44° W 21:42:43 10° NNW
STARLINK-1236 3.7 21:36:05 10° WNW 21:40:08 52° SW 21:40:36 48° S
Cosmos 2369 4.4 21:38:14 30° SSE 21:40:16 40° ESE 21:45:31 10° NE
STARLINK-1368 4.4 21:38:17 10° W 21:42:12 51° NNW 21:46:08 10° ENE
Cosmos 1937 Rocket 3.8 21:38:37 10° NNW 21:43:52 63° ENE 21:46:53 25° SE
Cosmos 2263 Rocket 4.2 21:39:56 10° N 21:44:33 25° NE 21:49:06 10° E
STARLINK-1369 4.4 21:42:14 10° W 21:46:06 50° NNW 21:49:58 10° ENE
ATLAS 5 CENTAUR R/B 3.6 21:44:40 10° W 21:46:48 18° NW 21:48:25 10° NNE
Cosmos 1626 2.9 21:46:18 34° WSW 21:47:20 44° WNW 21:50:56 10° N
Meteor 1-24 Rocket 4.0 21:44:56 28° SW 21:47:43 60° WNW 21:53:15 10° N
Cosmos 1812 Rocket 3.8 21:43:49 10° N 21:48:15 64° ENE 21:49:56 36° SSE
CZ-4C R/B 2.1 21:46:26 36° S 21:48:29 63° SE 21:54:24 10° NE
Cosmos 2297 Rocket 2.4 21:43:24 10° NW 21:48:56 56° WSW 21:51:12 34° S
Cosmos 1455 3.2 21:45:28 10° N 21:48:59 37° ENE 21:50:17 28° ESE
ERBS 2.0 21:45:54 10° WNW 21:49:14 75° SW 21:49:22 73° S
Cosmos 1656 3.6 21:46:31 32° SSW 21:49:16 85° ESE 21:54:53 10° NNE
STARLINK-1269 3.9 21:46:05 10° WNW 21:50:03 45° SW 21:50:10 45° SSW
STARLINK-1372 4.5 21:46:41 10° W 21:50:32 49° NNW 21:54:25 10° ENE
STARLINK-43 3.2 21:52:11 60° S 21:52:31 64° SSE 21:56:10 10° ENE
Cosmos 1898 Rocket 3.5 21:47:11 10° NNW 21:52:33 84° WSW 21:54:58 34° SSE
Cosmos 2219 3.7 21:47:19 10° NW 21:52:39 44° WSW 21:54:40 31° SSW
Lacrosse 4 Rocket 1.3 21:49:01 10° NNW 21:53:21 86° WSW 21:54:47 41° SSE
STARLINK-55 4.4 21:55:49 25° E 21:55:49 25° E 21:57:37 10° ENE
STARLINK-1200 4.0 21:51:05 10° WNW 21:54:57 41° SW 21:54:57 41° SW
Cosmos 921 Rocket 4.3 21:52:46 19° WSW 21:55:14 34° WNW 21:59:17 10° N
Cosmos 1386 Rocket 4.5 21:55:18 32° S 21:58:24 81° E 22:04:41 10° N
Cosmos 1602 Rocket 3.5 21:58:15 43° S 21:59:36 78° E 22:03:57 10° NNE
SL-4 R/B 2.8 21:54:46 10° WNW 21:59:37 65° NNE 22:04:23 10° E
STARLINK-1192 4.2 21:56:06 10° WNW 21:59:44 38° SW 21:59:44 38° SW
EO 1 Delta rocket 4.1 21:56:05 10° N 22:01:21 67° WNW 22:03:24 33° SSW
Cosmos 990 Rocket 4.0 21:57:11 10° NNW 22:02:26 68° WSW 22:04:34 35° S
Cosmos 2082 3.6 21:57:44 10° NNW 22:03:25 82° WSW 22:06:20 30° SSE
PSLV R/B 3.8 22:00:17 10° NNE 22:04:41 59° E 22:06:05 39° SSE
STARLINK-1244 4.3 22:01:06 10° WNW 22:04:30 35° SW 22:04:30 35° SW
STARLINK-28 3.7 22:06:48 38° ESE 22:06:48 38° ESE 22:09:12 10° ENE
STARLINK-1138 4.5 22:06:06 10° WNW 22:09:16 32° WSW 22:09:16 32° WSW
Meteor 2-1 Rocket 4.2 22:05:03 10° NNW 22:10:36 76° W 22:13:14 33° S
Cosmos 858 Rocket 4.4 22:05:53 10° NNW 22:11:11 81° WSW 22:13:42 32° SSE
STARLINK-1266 4.4 22:11:56 30° SE 22:11:56 30° SE 22:14:49 10° ENE
Helios 1A 3.9 22:10:55 31° SW 22:11:53 35° W 22:15:45 10° NNW
STARLINK-1284 4.2 22:15:11 33° SE 22:15:11 33° SE 22:18:14 10° ENE
Cosmos 1697 Rocket 2.7 22:12:54 32° SSW 22:15:35 78° ESE 22:21:17 10° NNE
Cosmos 2278 4.0 22:14:14 31° S 22:16:42 53° ESE 22:22:13 10° NE
STARLINK-33 3.6 22:17:23 39° ESE 22:17:23 39° ESE 22:19:43 10° ENE
STARLINK-26 3.2 22:18:08 54° SE 22:18:08 54° SE 22:21:28 10° ENE
STARLINK-1258 4.1 22:18:27 35° SE 22:18:27 35° SE 22:21:40 10° ENE
BREEZE-M R/B 3.2 22:11:48 10° WSW 22:18:53 87° N 22:22:23 10° ENE
Resurs 1-4 Rocket 3.9 22:15:27 10° NE 22:19:26 21° E 22:22:44 12° SE
Cosmos 841 Rocket 3.7 22:18:40 33° S 22:20:52 58° ESE 22:25:59 10° NNE
SJ 16-02 2.2 22:17:30 10° NW 22:21:34 36° WSW 22:22:33 31° SW
STARLINK-1292 4.0 22:21:44 37° SE 22:21:44 37° SE 22:25:06 10° ENE
Cosmos 1709 Rocket 4.0 22:20:26 29° S 22:23:43 76° E 22:29:54 10° NNE
Cosmos 2227 Rocket 3.0 22:21:26 10° NW 22:26:30 34° WSW 22:28:23 27° SW
Cosmos 1570 Rocket 4.0 22:24:28 33° S 22:26:51 73° ESE 22:32:08 10° NNE
STARLINK-1289 3.8 22:28:16 42° SSE 22:28:24 42° SE 22:31:58 10° ENE
Cosmos 1763 Rocket 3.5 22:25:57 31° SW 22:28:25 71° WNW 22:33:30 10° NNE
STARLINK-1301 3.7 22:29:18 44° SSE 22:29:39 45° SE 22:33:20 10° ENE
Cosmos 1400 Rocket 3.8 22:27:14 10° N 22:31:14 45° ENE 22:33:35 22° SE
SL-16 R/B 3.5 22:25:44 10° SE 22:31:31 44° ENE 22:37:21 10° N
STARLINK-1303 3.7 22:31:35 43° SSE 22:31:51 44° SE 22:35:26 10° ENE
STARLINK-1268 3.5 22:32:27 40° ESE 22:32:27 40° ESE 22:34:57 10° ENE
STARLINK-66 2.8 22:34:44 66° S 22:34:58 70° SSE 22:38:11 10° ENE
Cosmos 2298 Rocket 4.3 22:29:54 10° NNW 22:35:12 65° ENE 22:39:22 16° SE
STARLINK-1312 3.6 22:34:55 45° SSE 22:35:19 47° SE 22:38:56 10° ENE
Cosmos 2084 Rocket 3.5 22:32:02 10° NW 22:36:28 65° SW 22:38:30 31° SSE
STARLINK-1316 3.2 22:37:16 47° SE 22:37:16 47° SE 22:40:04 10° ENE
STARLINK-1257 3.2 22:38:07 48° SE 22:38:07 48° SE 22:40:58 10° ENE
STARLINK-1256 3.1 22:39:04 49° SE 22:39:04 49° SE 22:41:56 10° ENE
STARLINK-58 3.8 22:39:24 35° SE 22:39:24 35° SE 22:41:59 10° ENE
IRAS Rocket 4.2 22:35:51 23° SSE 22:39:27 83° ENE 22:45:00 10° NNW
STARLINK-1213 3.1 22:39:55 50° SE 22:39:55 50° SE 22:42:49 10° ENE
Cosmos 1758 Rocket 3.5 22:38:19 37° SSW 22:40:02 84° W 22:44:31 10° N
STARLINK-52 4.2 22:37:07 10° WNW 22:40:13 43° NNE 22:43:18 10° E
STARLINK-1263 3.1 22:40:46 51° SE 22:40:46 51° SE 22:43:42 10° ENE
STARLINK-1259 3.0 22:41:40 53° SE 22:41:40 53° SE 22:44:39 10° ENE
STARLINK-1265 3.0 22:42:01 53° SE 22:42:01 53° SE 22:45:04 10° ENE
STARLINK-1285 3.0 22:42:31 54° SE 22:42:31 54° SE 22:45:32 10° ENE
CZ-4 R/B 4.2 22:38:46 10° N 22:43:24 56° WNW 22:45:38 28° SW
Cosmos 2285 Rocket 4.1 22:37:13 10° NNW 22:43:30 63° WSW 22:47:05 26° S
SL-16 R/B 3.8 22:40:52 15° SE 22:44:07 24° ESE 22:48:33 10° NE
STARLINK-1296 2.9 22:44:15 56° SSE 22:44:16 56° SSE 22:47:21 10° ENE
STARLINK-48 4.3 22:44:22 31° SSE 22:44:38 31° SE 22:48:07 10° ENE
STARLINK-1260 2.9 22:45:07 56° SSE 22:45:10 57° SSE 22:48:14 10° ENE
Cosmos 2208 Rocket 4.0 22:43:07 31° SSW 22:45:45 86° ESE 22:51:10 10° NNE
STARLINK-1283 3.6 22:44:30 39° SSW 22:45:48 61° SSE 22:49:51 10° ENE
STARLINK-1318 2.9 22:45:59 57° SSE 22:46:04 57° SSE 22:49:09 10° ENE
STARLINK-75 2.8 22:45:38 56° SW 22:46:12 76° SSE 22:49:26 10° ENE
USA 215 3.3 22:40:51 11° SSE 22:46:56 55° SW 22:53:22 10° WNW
STARLINK-1275 2.8 22:46:52 58° SSE 22:46:59 58° SSE 22:50:04 10° ENE
STARLINK-80 3.4 22:46:44 43° SSW 22:47:41 60° SSE 22:51:27 10° ENE
STARLINK-1309 2.8 22:47:43 58° SSE 22:47:51 59° SSE 22:50:56 10° ENE
STARLINK-1282 2.8 22:48:35 59° SSE 22:48:45 60° SSE 22:51:50 10° ENE
STARLINK-1313 2.7 22:49:31 61° SSW 22:49:51 69° SSE 22:52:58 10° ENE
CZ-2D R/B 3.2 22:45:36 10° NNE 22:50:23 35° E 22:53:43 18° SSE
STARLINK-1279 2.7 22:50:26 61° SSW 22:50:47 70° SSE 22:53:54 10° ENE
STARLINK-1298 2.8 22:51:09 59° S 22:51:25 63° SSE 22:54:31 10° ENE
Meteor 2-10 Rocket 4.0 22:47:11 10° NNW 22:52:02 44° W 22:54:09 28° SW
USA 81 4.2 22:49:37 29° SSW 22:52:15 65° W 22:57:32 10° N
STARLINK-1293 2.8 22:52:02 59° S 22:52:21 64° SSE 22:55:27 10° ENE
STARLINK-1297 3.3 22:52:46 45° SSW 22:53:35 60° SSE 22:57:09 10° ENE
MOZ.5/SAFIR/RUBIN 5/SL-8 4.0 22:50:36 20° SSE 22:53:46 65° ENE 22:58:23 10° N
STARLINK-1255 2.8 22:53:47 58° SSW 22:54:09 66° SSE 22:57:16 10° ENE
STARLINK-22 2.8 22:53:52 53° SSW 22:54:27 71° SSE 22:57:40 10° ENE
Cosmos-2242 3.1 22:51:44 10° NNW 22:55:56 58° W 22:57:33 34° SSW
STARLINK 1040 3.8 22:56:00 22° WNW 22:57:14 38° NNW 22:59:40 10° ENE
STARLINK-1311 2.5 22:56:52 62° SW 22:57:16 81° SSE 23:00:13 10° ENE
STARLINK-1444 4.1 22:55:43 10° WNW 22:56:39 21° NW 22:56:39 21° NW
Cosmos 1953 Rocket 3.5 22:56:23 32° S 22:58:24 85° E 23:02:49 10° N
STARLINK-1452 4.4 22:56:22 10° WNW 22:57:03 17° WNW 22:57:03 17° WNW
Cosmos 2221 3.9 22:54:39 10° N 22:58:41 35° ENE 23:02:38 10° SE
GP-B 3.3 22:58:36 10° N 23:03:03 70° E 23:05:33 25° S
Cosmos 540 Rocket 3.6 23:01:19 27° SW 23:04:07 69° WNW 23:09:15 10° NNE
STARLINK-42 2.8 23:03:38 38° WSW 23:04:38 78° NNW 23:07:41 10° ENE
Cosmos 1842 Rocket 4.3 23:01:02 10° N 23:05:24 49° ENE 23:08:56 15° SSE
CZ-4C R/B 3.8 23:02:53 20° SSE 23:05:51 72° ENE 23:10:17 10° N
Cosmos 2360 Rocket 4.4 23:03:25 10° SE 23:06:41 16° E 23:09:57 10° ENE
Cosmos 1315 Rocket 4.0 23:02:59 10° N 23:06:43 39° ENE 23:10:05 12° SE
STARLINK-1029 3.1 23:06:50 45° S 23:07:13 48° SSE 23:10:18 10° ENE
STARLINK-34 2.7 23:07:19 55° S 23:07:42 62° SSE 23:10:39 10° ENE
FALCON 9 DEB 4.2 23:04:24 10° WNW 23:07:44 47° NNE 23:11:07 10° E
STARLINK-60 2.7 23:05:11 10° WNW 23:08:23 82° SSW 23:11:34 10° ESE
STARLINK-41 2.8 23:07:32 37° WSW 23:08:33 76° NNW 23:11:33 10° ENE
STARLINK-1272 3.1 23:08:34 34° SW 23:09:58 80° SSE 23:13:31 10° ENE
Cosmos 2074 Rocket 4.2 23:06:40 21° S 23:11:03 71° E 23:17:19 10° NNE
FALCON 9 R/B 3.9 23:08:52 23° SSW 23:11:18 26° S 23:23:59 10° SE
STARLINK-62 2.7 23:10:58 51° SSW 23:11:31 67° SSE 23:14:32 10° ENE
Helios 1B rocket 3.8 23:08:21 10° N 23:11:58 29° WNW 23:14:05 19° WSW
Cosmos 1980 Rocket 2.3 23:10:05 24° SW 23:13:34 72° WNW 23:19:15 10° NNE
STARLINK-1307 3.2 23:12:40 29° WSW 23:14:25 83° SSE 23:18:08 10° ENE
STARLINK-1290 3.2 23:16:02 27° WSW 23:17:55 86° SSE 23:21:39 10° ENE
CZ-4B R/B 4.3 23:15:37 10° NNE 23:20:41 46° E 23:24:38 16° SSE
STARLINK-1306 4.5 23:21:34 27° S 23:23:03 35° SE 23:26:53 10° ENE
Meteor 1-29 4.4 23:20:23 10° N 23:23:14 25° WNW 23:24:32 20° WSW
STARLINK-1317 3.4 23:21:44 22° WSW 23:24:12 85° NNW 23:28:07 10° ENE
Cosmos 1455 3.9 23:21:45 10° NW 23:24:20 18° W 23:25:11 17° WSW
Shenzhou-11 Module 4.2 23:26:33 10° ESE 23:26:33 10° ESE 23:26:37 10° ESE
Meteor 1-11 4.2 23:21:37 24° SSW 23:25:08 76° WNW 23:30:45 10° N
NOSS 2-1 (C) 3.7 23:24:45 28° S 23:26:01 40° ESE 23:29:23 10° NE
STARLINK-1262 4.4 23:26:15 26° S 23:27:49 35° SE 23:31:37 10° ENE
ADEOS II 3.5 23:24:07 10° NNE 23:28:48 31° E 23:33:27 10° SSE
USA 229 DEB 3.8 23:21:35 10° NW 23:28:51 79° SW 23:36:28 10° SSE
USA 229 3.8 23:21:42 10° NW 23:28:57 79° SW 23:36:34 10° SSE
Cosmos 2263 Rocket 2.1 23:23:26 10° NNW 23:29:02 72° WSW 23:34:22 11° SSE
STARLINK-1274 3.2 23:27:24 22° WSW 23:29:35 79° NNW 23:33:09 10° ENE
NOSS 3-1 (C) 4.0 23:22:18 10° NW 23:29:45 74° SW 23:38:21 10° SSE
STARLINK-43 4.4 23:26:55 10° W 23:30:28 45° NNW 23:34:03 10° ENE
STARLINK-55 3.6 23:28:12 15° W 23:30:41 52° NNW 23:33:49 10° ENE
NOSS 2-1 (D) 3.5 23:29:31 28° S 23:30:54 45° SE 23:34:21 10° NE
Lacrosse 4 Rocket 3.7 23:30:29 10° W 23:31:03 10° W 23:31:03 10° W
STARLINK-1291 3.4 23:30:04 19° WSW 23:32:35 78° NNW 23:36:20 10° ENE
STARLINK-1300 4.3 23:31:02 26° S 23:32:46 38° SE 23:36:37 10° ENE
STARLINK-1264 3.4 23:33:15 18° WSW 23:35:53 75° NNW 23:39:38 10° ENE
AQUA 4.2 23:31:15 10° NNE 23:35:59 60° E 23:39:31 17° S
Cosmos 2184 Rocket 4.0 23:31:40 20° SSW 23:36:06 81° W 23:42:19 10° N
UNK 3.7 23:33:20 20° S 23:36:31 68° WSW 23:41:05 10° NNW
NPP 3.7 23:31:56 10° NNE 23:37:22 76° ESE 23:41:24 18° S
CZ-4C R/B 3.6 23:32:29 10° W 23:37:26 35° NNW 23:43:17 10° NE
STARLINK-1295 4.2 23:35:48 25° SSW 23:37:42 41° SE 23:41:37 10° ENE
NOSS 3-1 (A) 4.1 23:30:25 10° NW 23:37:53 89° WSW 23:46:32 10° SE
ARIANE 5 R/B 4.4 23:35:05 10° NE 23:39:03 23° E 23:42:59 10° SE
STARLINK-1267 3.5 23:36:28 17° WSW 23:39:15 72° NNW 23:42:59 10° ENE
SL-4 R/B 2.4 23:34:40 10° WNW 23:39:25 58° SSW 23:44:01 10° SE
STARLINK-29 2.8 23:37:54 10° WNW 23:41:07 85° SSW 23:44:18 10° ESE
STARLINK-28 3.9 23:39:11 10° W 23:42:14 45° NNW 23:45:21 10° ENE
STARLINK-64 3.2 23:40:36 26° SW 23:42:25 65° SSE 23:46:00 10° ENE
STARLINK-1287 4.1 23:40:35 24° SSW 23:42:39 44° SE 23:46:37 10° ENE
STARLINK-1207 3.6 23:42:56 14° WSW 23:46:01 67° NNW 23:49:45 10° ENE
STARLINK-1266 3.7 23:46:11 13° WSW 23:49:24 65° NNW 23:53:08 10° ENE
Cosmos 1892 3.3 23:46:53 16° SSE 23:49:47 53° E 23:53:29 10° NNE
STARLINK-1299 3.9 23:48:04 22° SW 23:50:41 58° SE 23:54:52 10° ENE
STARLINK-1373 4.4 23:47:46 10° WNW 23:51:41 51° NNE 23:55:35 10° E
Cosmos 2322 Rocket 2.4 23:47:54 17° S 23:52:11 64° ESE 23:57:45 10° NNE
STARLINK-33 4.0 23:49:29 10° W 23:52:25 42° NNW 23:55:23 10° ENE
STARLINK-1302 3.9 23:50:08 22° SSW 23:52:34 51° SE 23:56:37 10° ENE
STARLINK-1284 3.7 23:49:26 12° W 23:52:49 63° NNW 23:56:32 10° ENE
In-Cosmos 22 Rocket 4.4 23:49:15 14° S 23:54:06 69° E 23:59:33 10° NNE
Cosmos 1869 3.2 23:50:44 10° NNW 23:54:36 68° W 23:57:29 17° S
STARLINK-26 4.1 23:51:46 10° W 23:55:06 45° NNW 23:58:27 10° ENE
STARLINK-1320 3.7 23:52:57 10° WNW 23:56:01 53° NNE 23:59:05 10° E
STARLINK-1258 3.8 23:52:43 11° W 23:56:14 61° NNW 23:59:58 10° ENE
STARLINK-1322 3.7 23:53:17 10° WNW 23:56:22 53° NNE 23:59:26 10° E
STARLINK-1324 3.7 23:53:35 10° WNW 23:56:39 53° NNE 23:59:43 10° E
